This is the latest recevied weather packets stored in our database for station/object KB7STN. If no packets are shown the sender has not sent any weather packets the latest 10 day(s).
| Time | Temp. | Humidity | Pressure | Rain* | Wind** | Luminosity | Snow |
|---|---|---|---|---|---|---|---|
| 1778170032 | 14.44° C | 31% | 1011 hPa | 0 mm | - | - | - |
| 1778169733 | 14.44° C | 31% | 1010.9 hPa | 0 mm | - | - | - |
| 1778169432 | 13.89° C | 32% | 1010.8 hPa | 0 mm | - | - | - |
| 1778169132 | 13.33° C | 33% | 1010.7 hPa | 0 mm | - | - | - |
| 1778168833 | 13.33° C | 32% | 1010.9 hPa | 0 mm | - | - | - |
| 1778168532 | 13.33° C | 32% | 1011 hPa | 0 mm | - | - | - |
| 1778168233 | 13.33° C | 32% | 1011 hPa | 0 mm | - | - | - |
| 1778167932 | 13.33° C | 31% | 1011.2 hPa | 0 mm | - | - | - |
| 1778167633 | 13.33° C | 32% | 1011 hPa | 0 mm | - | - | - |
| 1778167333 | 13.33° C | 30% | 1010.8 hPa | 0 mm | - | - | - |
| 1778167033 | 13.89° C | 30% | 1010.9 hPa | 0 mm | - | - | - |
| 1778166732 | 13.89° C | 28% | 1010.9 hPa | 0 mm | - | - | - |
| 1778166433 | 14.44° C | 28% | 1011 hPa | 0 mm | - | - | - |
| 1778166133 | 14.44° C | 28% | 1010.9 hPa | 0 mm | - | - | - |
| 1778165833 | 14.44° C | 28% | 1011.1 hPa | 0 mm | - | - | - |
| 1778165533 | 13.89° C | 29% | 1011.1 hPa | 0 mm | - | - | - |
| 1778165233 | 13.89° C | 29% | 1010.9 hPa | 0 mm | - | - | - |
| 1778164933 | 13.89° C | 30% | 1011 hPa | 0 mm | - | - | - |
| 1778164633 | 13.33° C | 31% | 1011.1 hPa | 0 mm | - | - | - |
| 1778164333 | 12.78° C | 31% | 1011.4 hPa | 0 mm | - | - | - |
| 1778164033 | 12.78° C | 32% | 1011.2 hPa | 0 mm | - | - | - |
| 1778163733 | 12.78° C | 33% | 1011.3 hPa | 0 mm | - | - | - |
| 1778163433 | 12.78° C | 34% | 1011.3 hPa | 0 mm | - | - | - |
| 1778163133 | 12.22° C | 34% | 1011.3 hPa | 0 mm | - | - | - |
| 1778162833 | 12.22° C | 35% | 1011.4 hPa | 0 mm | - | - | - |
* Rain latest hour (hover to see other rain measurements)
** Current wind speed in m/s (hover to see current wind gust speed)